| time (UTC) | temp F | wind direction | speed MPH | gust MPH | rain 1hr in | rain 24hr in | rain mn in | humidity % | barometer mb |
| 20260510081558 | 51 | 65 | 0.0 | 3.0 | 0.00 | 1.18 | 0.00 | 94 | 1019.3 |
| 20260510080100 | 51 | 92 | 0.0 | 0.0 | 0.00 | 1.18 | 0.00 | 94 | 1019.4 |
| 20260510080002 | 51 | 92 | 0.0 | 0.0 | 0.00 | 1.18 | 0.00 | 94 | 1019.5 |
| 20260510074624 | 51 | 92 | 0.0 | 0.0 | 0.00 | 1.18 | 0.00 | 94 | 1019.7 |
| 20260510073058 | 52 | 92 | 0.0 | 0.0 | 0.00 | 1.18 | 0.00 | 94 | 1019.7 |
| 20260510071602 | 52 | 92 | 0.0 | 0.0 | 0.00 | 1.18 | 0.00 | 94 | 1019.4 |
| 20260510070058 | 52 | 92 | 0.0 | 2.0 | 0.00 | 1.18 | 0.00 | 93 | 1019.5 |
| 20260510070000 | 52 | 92 | 0.0 | 2.0 | 0.00 | 1.18 | 0.00 | 94 | 1019.4 |
| 20260510064611 | 52 | 80 | 0.0 | 0.0 | 0.00 | 1.18 | 0.00 | 93 | 1019.3 |
| 20260510063102 | 52 | 82 | 0.0 | 4.0 | 0.00 | 1.18 | 0.00 | 93 | 1019.3 |
| 20260510061558 | 52 | 70 | 1.0 | 4.0 | 0.00 | 1.18 | 0.00 | 93 | 1019.2 |
| 20260510060100 | 52 | 25 | 1.0 | 3.0 | 0.00 | 1.18 | 0.00 | 93 | 1019.3 |
| 20260510060004 | 52 | 25 | 1.0 | 3.0 | 0.00 | 1.18 | 0.00 | 93 | 1019.3 |
| 20260510054558 | 52 | 99 | 1.0 | 3.0 | 0.00 | 1.18 | 0.00 | 93 | 1019.3 |
| 20260510053057 | 52 | 130 | 1.0 | 5.0 | 0.00 | 1.18 | 0.00 | 93 | 1019.1 |
| 20260510051603 | 52 | 311 | 4.0 | 14.0 | 0.00 | 1.18 | 0.00 | 94 | 1019.5 |
| 20260510044558 | 52 | 314 | 0.0 | 0.0 | 0.00 | 1.19 | 0.00 | 94 | 1019.6 |
| 20260510043104 | 52 | 157 | 0.0 | 2.0 | 0.00 | 1.19 | 0.00 | 94 | 1019.6 |
| 20260510041611 | 52 | 92 | 0.0 | 2.0 | 0.00 | 1.19 | 0.00 | 94 | 1019.6 |
| 20260510040058 | 52 | 90 | 0.0 | 3.0 | 0.00 | 1.19 | 0.00 | 94 | 1019.6 |
| 20260510040001 | 52 | 90 | 0.0 | 3.0 | 0.00 | 1.19 | 0.00 | 94 | 1019.6 |
| 20260510034558 | 52 | 50 | 0.0 | 4.0 | 0.00 | 1.27 | 0.00 | 94 | 1019.5 |
| 20260510033100 | 52 | 60 | 0.0 | 3.0 | 0.00 | 1.27 | 0.00 | 94 | 1019.4 |
| 20260510031601 | 52 | 1 | 0.0 | 1.0 | 0.00 | 1.27 | 0.00 | 94 | 1019.6 |
| 20260510030100 | 52 | 1 | 0.0 | 3.0 | 0.01 | 1.27 | 0.00 | 94 | 1020.0 |
| 20260510030002 | 52 | 1 | 0.0 | 3.0 | 0.01 | 1.27 | 0.00 | 94 | 1020.0 |
| 20260510024601 | 52 | 333 | 0.0 | 1.0 | 0.02 | 1.40 | 1.27 | 94 | 1020.2 |
| 20260510023058 | 53 | 18 | 0.0 | 2.0 | 0.04 | 1.40 | 1.27 | 94 | 1020.3 |
| 20260510021558 | 53 | 48 | 0.0 | 4.0 | 0.09 | 1.40 | 1.27 | 94 | 1020.0 |
| 20260510020059 | 53 | 76 | 3.0 | 5.0 | 0.14 | 1.39 | 1.26 | 94 | 1019.3 |
| 20260510014559 | 53 | 79 | 1.0 | 3.0 | 0.18 | 1.43 | 1.25 | 94 | 1019.6 |
| 20260510013107 | 53 | 79 | 1.0 | 3.0 | 0.19 | 1.40 | 1.22 | 94 | 1019.9 |
| 20260510011558 | 53 | 66 | 0.0 | 0.0 | 0.19 | 1.36 | 1.18 | 94 | 1020.6 |
| 20260510010110 | 53 | 73 | 1.0 | 3.0 | 0.15 | 1.30 | 1.12 | 94 | 1020.7 |
| 20260510004603 | 53 | 84 | 2.0 | 5.0 | 0.12 | 1.26 | 1.07 | 94 | 1019.7 |
| 20260510003102 | 53 | 74 | 2.0 | 4.0 | 0.08 | 1.22 | 1.03 | 94 | 1019.9 |
| 20260510001558 | 53 | 85 | 3.0 | 5.0 | 0.04 | 1.18 | 0.99 | 94 | 1019.8 |
| 20260510000121 | 54 | 74 | 1.0 | 4.0 | 0.02 | 1.15 | 0.97 | 94 | 1020.1 |
| 20260510000001 | 53 | 74 | 1.0 | 4.0 | 0.02 | 1.15 | 0.97 | 94 | 1020.1 |
| 20260509234606 | 53 | 64 | 2.0 | 3.0 | 0.00 | 1.13 | 0.95 | 94 | 1019.5 |
| 20260509233058 | 54 | 9 | 0.0 | 3.0 | 0.01 | 1.13 | 0.95 | 94 | 1019.3 |
| 20260509231559 | 54 | 82 | 1.0 | 5.0 | 0.04 | 1.13 | 0.95 | 94 | 1019.0 |
| 20260509230104 | 54 | 114 | 0.0 | 3.0 | 0.06 | 1.13 | 0.95 | 94 | 1019.6 |
| 20260509224558 | 54 | 111 | 2.0 | 4.0 | 0.05 | 1.12 | 0.94 | 94 | 1019.5 |
| 20260509223058 | 54 | 123 | 1.0 | 2.0 | 0.06 | 1.12 | 0.94 | 94 | 1019.6 |
| 20260509221610 | 54 | 124 | 1.0 | 4.0 | 0.03 | 1.09 | 0.90 | 94 | 1019.6 |
| 20260509220106 | 54 | 92 | 1.0 | 3.0 | 0.03 | 1.08 | 0.89 | 94 | 1018.4 |
| 20260509220001 | 54 | 93 | 1.0 | 3.0 | 0.03 | 1.08 | 0.89 | 94 | 1018.4 |
| 20260509214558 | 54 | 88 | 1.0 | 4.0 | 0.04 | 1.08 | 0.89 | 93 | 1018.1 |
| 20260509213058 | 54 | 109 | 2.0 | 5.0 | 0.02 | 1.06 | 0.87 | 94 | 1018.3 |
| 20260509211558 | 54 | 105 | 0.0 | 0.0 | 0.02 | 1.05 | 0.86 | 93 | 1018.0 |
| 20260509210103 | 54 | 91 | 0.0 | 3.0 | 0.02 | 1.05 | 0.86 | 93 | 1018.3 |
| 20260509204602 | 54 | 67 | 1.0 | 4.0 | 0.01 | 1.04 | 0.85 | 93 | 1018.1 |
| 20260509203059 | 54 | 62 | 0.0 | 3.0 | 0.03 | 1.04 | 0.85 | 93 | 1018.2 |
| 20260509201558 | 54 | 60 | 0.0 | 4.0 | 0.09 | 1.03 | 0.84 | 93 | 1017.7 |
| 20260509200106 | 54 | 35 | 3.0 | 6.0 | 0.18 | 1.03 | 0.84 | 93 | 1017.2 |
| 20260509194557 | 54 | 103 | 2.0 | 6.0 | 0.25 | 1.03 | 0.84 | 93 | 1017.1 |
| 20260509193119 | 55 | 64 | 2.0 | 4.0 | 0.27 | 1.01 | 0.82 | 93 | 1017.3 |
| 20260509191614 | 55 | 44 | 1.0 | 4.0 | 0.22 | 0.94 | 0.75 | 92 | 1017.7 |
| 20260509190112 | 55 | 77 | 0.0 | 4.0 | 0.14 | 0.85 | 0.66 | 92 | 1017.5 |
| 20260509184558 | 55 | 307 | 0.0 | 0.0 | 0.12 | 0.80 | 0.57 | 92 | 1017.4 |
| 20260509183102 | 56 | 303 | 0.0 | 0.0 | 0.11 | 0.77 | 0.55 | 92 | 1016.8 |
| 20260509181558 | 56 | 101 | 0.0 | 1.0 | 0.10 | 0.75 | 0.53 | 92 | 1016.5 |
| 20260509180058 | 56 | 101 | 0.0 | 2.0 | 0.12 | 0.74 | 0.52 | 92 | 1016.6 |
| 20260509174558 | 57 | 114 | 3.0 | 5.0 | 0.06 | 0.67 | 0.45 | 92 | 1016.2 |
| 20260509173108 | 57 | 290 | 0.0 | 4.0 | 0.08 | 0.66 | 0.44 | 92 | 1015.7 |
| 20260509171620 | 58 | 120 | 0.0 | 1.0 | 0.10 | 0.65 | 0.43 | 92 | 1015.8 |
| 20260509170058 | 58 | 55 | 0.0 | 1.0 | 0.12 | 0.62 | 0.40 | 92 | 1015.8 |
| 20260509164557 | 58 | 55 | 1.0 | 3.0 | 0.15 | 0.61 | 0.39 | 92 | 1015.7 |
| 20260509163104 | 58 | 133 | 0.0 | 2.0 | 0.13 | 0.57 | 0.36 | 92 | 1015.6 |
| 20260509161558 | 58 | 136 | 2.0 | 4.0 | 0.10 | 0.54 | 0.32 | 91 | 1015.3 |
| 20260509160058 | 58 | 295 | 2.0 | 5.0 | 0.07 | 0.50 | 0.28 | 91 | 1016.2 |
| 20260509154559 | 59 | 281 | 1.0 | 3.0 | 0.03 | 0.46 | 0.24 | 91 | 1014.5 |
| 20260509153101 | 59 | 250 | 1.0 | 4.0 | 0.03 | 0.45 | 0.23 | 91 | 1015.1 |
| 20260509151606 | 60 | 271 | 0.0 | 0.0 | 0.03 | 0.44 | 0.22 | 91 | 1015.6 |
| 20260509150057 | 60 | 258 | 0.0 | 0.0 | 0.06 | 0.43 | 0.21 | 91 | 1015.8 |
| 20260509144558 | 60 | 259 | 1.0 | 3.0 | 0.09 | 0.43 | 0.21 | 91 | 1016.4 |
| 20260509143058 | 60 | 56 | 0.0 | 0.0 | 0.09 | 0.42 | 0.20 | 92 | 1016.5 |
| 20260509141558 | 60 | 56 | 1.0 | 2.0 | 0.08 | 0.41 | 0.19 | 91 | 1016.5 |
| 20260509140059 | 60 | 53 | 0.0 | 4.0 | 0.05 | 0.37 | 0.15 | 91 | 1016.7 |
| 20260509134608 | 60 | 48 | 2.0 | 6.0 | 0.02 | 0.34 | 0.12 | 91 | 1016.3 |
| 20260509133057 | 61 | 29 | 1.0 | 5.0 | 0.01 | 0.33 | 0.11 | 91 | 1016.3 |
| 20260509131633 | 61 | 279 | 0.0 | 0.0 | 0.01 | 0.33 | 0.11 | 90 | 1015.4 |
| 20260509130125 | 61 | 279 | 0.0 | 2.0 | 0.00 | 0.32 | 0.10 | 90 | 1015.0 |
| 20260509124557 | 60 | 8 | 1.0 | 2.0 | 0.00 | 0.32 | 0.10 | 91 | 1015.3 |
| 20260509123103 | 60 | 8 | 0.0 | 2.0 | 0.01 | 0.32 | 0.10 | 92 | 1015.1 |
| 20260509121557 | 60 | 8 | 0.0 | 1.0 | 0.01 | 0.32 | 0.10 | 92 | 1014.9 |
| 20260509120106 | 60 | 264 | 0.0 | 4.0 | 0.01 | 0.32 | 0.10 | 93 | 1015.0 |
| 20260509114610 | 59 | 249 | 0.0 | 5.0 | 0.01 | 0.32 | 0.10 | 93 | 1014.7 |
| 20260509113104 | 59 | 258 | 0.0 | 3.0 | 0.00 | 0.31 | 0.09 | 93 | 1014.7 |
| 20260509111602 | 59 | 46 | 0.0 | 0.0 | 0.00 | 0.31 | 0.09 | 92 | 1014.3 |
| 20260509110106 | 59 | 46 | 0.0 | 0.0 | 0.00 | 0.31 | 0.09 | 92 | 1014.2 |
| 20260509104608 | 59 | 46 | 0.0 | 2.0 | 0.00 | 0.31 | 0.09 | 92 | 1014.5 |
| 20260509103058 | 59 | 46 | 2.0 | 3.0 | 0.00 | 0.31 | 0.09 | 92 | 1014.2 |
| 20260509101558 | 58 | 77 | 2.0 | 5.0 | 0.00 | 0.31 | 0.09 | 92 | 1014.0 |
| 20260509100057 | 58 | 58 | 2.0 | 4.0 | 0.00 | 0.31 | 0.09 | 92 | 1013.2 |
| 20260509094611 | 58 | 275 | 0.0 | 2.0 | 0.00 | 0.31 | 0.09 | 92 | 1013.1 |
| 20260509093057 | 58 | 276 | 0.0 | 3.0 | 0.00 | 0.31 | 0.09 | 92 | 1012.1 |
| 20260509091600 | 58 | 117 | 1.0 | 3.0 | 0.00 | 0.31 | 0.09 | 92 | 1012.0 |
| 20260509090104 | 58 | 84 | 1.0 | 5.0 | 0.00 | 0.31 | 0.09 | 92 | 1012.0 |
| 20260509083058 | 58 | 4 | 1.0 | 3.0 | 0.00 | 0.31 | 0.09 | 92 | 1011.4 |